Mora, MN

1:48 AM CDT on June 28, 2017 (GMT -0500)
Mora Municipal

Weather History for KJMR - February, 2013

Change the Weather History Date:

Thursday, February 14, 2013

  Actual Average Record
Temperature  
Mean Temperature 22 °F -  
Max Temperature 30 °F 27 °F 48 °F (1983)
Min Temperature 14 °F 4 °F -31 °F (1970)
Degree Days  
Heating Degree Days 43    
Moisture  
Dew Point 12 °F    
Average Humidity 64    
Maximum Humidity 93    
Minimum Humidity 31    
Precipitation  
Precipitation 0.00 in - - ()
Sea Level Pressure  
Sea Level Pressure 29.91 in    
Wind  
Wind Speed 5 mph (NNW)    
Max Wind Speed 20 mph    
Max Gust Speed 24 mph    
Visibility 9 miles    
Events Snow    
Averages and records for this station are not official NWS values.
T = Trace of Precipitation, MM = Missing Value Source: NWS Daily Summary

Daily Weather History Graph

Daily Weather History Graph

Search for Another Location

Airport or City:

Trip Planner

Search our weather history database for the weather conditions in past years. The results will help you decide how hot, cold, wet, or windy it might be!

Date:

Astronomy

Feb. 14, 2013 Rise Set
Actual Time 7:16 AM CST 5:38 PM CST
Civil Twilight 6:45 AM CST 6:09 PM CST
Nautical Twilight 6:11 AM CST 6:44 PM CST
Astronomical Twilight 5:36 AM CST 7:18 PM CST
Moon 9:01 AM CST (2/14) 11:01 PM CST (2/14)
Length of Visible Light 11h 23m
Length of Day
10h 21m
Waxing Crescent, 22% of the Moon is Illuminated
Feb 14
Waxing Crescent
Feb 17
First Quarter
Feb 25
Full
Mar 4
Last Quarter
Mar 11
New

Hourly Weather History & Observations

Time (CST) Temp. Windchill Dew Point Humidity Pressure Visibility Wind Dir Wind Speed Gust Speed Precip Events Conditions
12:13 AM 28.4 °F 24.6 °F 26.6 °F 93% 29.65 in 5.0 mi NE 3.5 mph - N/A Snow Light Snow
12:33 AM 28.4 °F - 26.6 °F 93% 29.65 in 7.0 mi Calm Calm - N/A Snow Light Snow
12:53 AM 28.4 °F - 26.6 °F 93% 29.66 in 10.0 mi Calm Calm - N/A   Overcast
1:13 AM 26.6 °F - 24.8 °F 93% 29.66 in 10.0 mi Calm Calm - N/A   Mostly Cloudy
1:33 AM 26.6 °F - 24.8 °F 93% 29.67 in 10.0 mi Calm Calm - N/A   Scattered Clouds
1:53 AM 26.6 °F 22.6 °F 24.8 °F 93% 29.67 in 10.0 mi NNW 3.5 mph - N/A   Scattered Clouds
2:13 AM 26.6 °F - 24.8 °F 93% 29.68 in 10.0 mi Calm Calm - N/A   Scattered Clouds
2:33 AM 26.6 °F 22.6 °F 24.8 °F 93% 29.69 in 10.0 mi NNW 3.5 mph - N/A   Mostly Cloudy
2:53 AM 26.6 °F - 24.8 °F 93% 29.70 in 10.0 mi Calm Calm - N/A   Scattered Clouds
3:13 AM 24.8 °F 20.5 °F 23.0 °F 93% 29.70 in 10.0 mi NNW 3.5 mph - N/A   Clear
3:33 AM 24.8 °F 19.1 °F 21.2 °F 86% 29.71 in 10.0 mi NW 4.6 mph - N/A   Clear
3:53 AM 23.0 °F 18.4 °F 21.2 °F 93% 29.71 in 10.0 mi NNW 3.5 mph - N/A   Scattered Clouds
4:13 AM 24.8 °F 20.5 °F 21.2 °F 86% 29.72 in 10.0 mi NW 3.5 mph - N/A   Overcast
4:33 AM 24.8 °F - 23.0 °F 93% 29.72 in 10.0 mi Calm Calm - N/A   Overcast
4:53 AM 24.8 °F - 23.0 °F 93% 29.73 in 10.0 mi Calm Calm - N/A   Overcast
5:13 AM 24.8 °F - 21.2 °F 86% 29.74 in 10.0 mi Calm Calm - N/A   Overcast
5:33 AM 24.8 °F - 21.2 °F 86% 29.75 in 10.0 mi Calm Calm - N/A   Mostly Cloudy
6:13 AM 23.0 °F 18.4 °F 21.2 °F 93% 29.76 in 10.0 mi NW 3.5 mph - N/A   Overcast
6:33 AM 21.2 °F 16.4 °F 19.4 °F 93% 29.76 in 10.0 mi NW 3.5 mph - N/A   Mostly Cloudy
6:53 AM 21.2 °F 16.4 °F 19.4 °F 93% 29.78 in 10.0 mi NW 3.5 mph - N/A   Mostly Cloudy
7:13 AM 23.0 °F - 21.2 °F 93% 29.79 in 10.0 mi Calm Calm - N/A   Mostly Cloudy
7:33 AM 26.6 °F 21.2 °F 23.0 °F 86% 29.79 in 10.0 mi NW 4.6 mph - N/A   Overcast
7:53 AM 26.6 °F 21.2 °F 23.0 °F 86% 29.80 in 10.0 mi NW 4.6 mph - N/A   Overcast
8:13 AM 26.6 °F 18.2 °F 23.0 °F 86% 29.81 in 10.0 mi NNW 8.1 mph - N/A   Overcast
8:33 AM 24.8 °F 16.9 °F 21.2 °F 86% 29.81 in 10.0 mi NW 6.9 mph - N/A   Mostly Cloudy
8:53 AM 24.8 °F 13.4 °F 19.4 °F 80% 29.82 in 7.0 mi NW 12.7 mph - N/A   Scattered Clouds
9:13 AM 24.8 °F 14.6 °F 19.4 °F 80% 29.83 in 10.0 mi NNW 10.4 mph - N/A   Mostly Cloudy
9:33 AM 24.8 °F 14.6 °F 19.4 °F 80% 29.84 in 10.0 mi NNW 10.4 mph - N/A   Overcast
9:53 AM 24.8 °F 16.9 °F 19.4 °F 80% 29.85 in 10.0 mi NNW 6.9 mph - N/A   Overcast
10:13 AM 26.6 °F 20.0 °F 21.2 °F 80% 29.86 in 10.0 mi North 5.8 mph - N/A   Overcast
10:33 AM 26.6 °F 17.5 °F 19.4 °F 74% 29.86 in 10.0 mi NNW 9.2 mph - N/A   Mostly Cloudy
10:53 AM 26.6 °F 21.2 °F 19.4 °F 74% 29.87 in 10.0 mi North 4.6 mph - N/A   Scattered Clouds
11:13 AM 30.2 °F 22.6 °F 19.4 °F 64% 29.87 in 10.0 mi NNW 8.1 mph - N/A   Clear
11:33 AM 30.2 °F 21.3 °F 19.4 °F 64% 29.88 in 4.0 mi WNW 10.4 mph - N/A   Haze
11:53 AM 30.2 °F 21.3 °F 19.4 °F 64% 29.88 in 4.0 mi NW 10.4 mph - N/A   Haze
12:13 PM 30.2 °F 21.9 °F 8.6 °F 40% 29.89 in 2.0 mi North 9.2 mph 17.3 mph N/A   Haze
12:33 PM 30.2 °F 20.8 °F 5.0 °F 34% 29.90 in 10.0 mi North 11.5 mph 18.4 mph N/A   Clear
12:53 PM 30.2 °F 22.6 °F 6.8 °F 37% 29.90 in 10.0 mi North 8.1 mph - N/A   Clear
1:13 PM 30.2 °F 21.3 °F 8.6 °F 40% 29.91 in 10.0 mi NNW 10.4 mph - N/A   Clear
1:33 PM 28.4 °F 17.0 °F 6.8 °F 40% 29.92 in 0.8 mi NNW 15.0 mph 21.9 mph N/A   Haze
1:53 PM 28.4 °F 15.4 °F 3.2 °F 34% 29.92 in 2.5 mi NNW 19.6 mph 24.2 mph N/A   Haze
2:13 PM 26.6 °F 14.3 °F 3.2 °F 37% 29.93 in 10.0 mi NNW 16.1 mph 21.9 mph N/A   Clear
2:33 PM 26.6 °F 17.5 °F 1.4 °F 34% 29.95 in 10.0 mi North 9.2 mph 17.3 mph N/A   Clear
2:53 PM 26.6 °F 15.2 °F 1.4 °F 34% 29.96 in 7.0 mi NNW 13.8 mph 19.6 mph N/A   Clear
3:13 PM 26.6 °F 15.7 °F 1.4 °F 34% 29.97 in 7.0 mi NNW 12.7 mph 20.7 mph N/A   Clear
3:33 PM 26.6 °F 15.7 °F 3.2 °F 37% 29.98 in 10.0 mi NNW 12.7 mph 19.6 mph N/A   Clear
3:53 PM 26.6 °F 16.2 °F -0.4 °F 31% 29.99 in 10.0 mi North 11.5 mph 19.6 mph N/A   Clear
4:13 PM 26.6 °F 16.8 °F -0.4 °F 31% 30.00 in 10.0 mi North 10.4 mph 18.4 mph N/A   Clear
4:33 PM 26.6 °F 18.2 °F -0.4 °F 31% 30.01 in 10.0 mi North 8.1 mph 16.1 mph N/A   Clear
4:53 PM 26.6 °F 17.5 °F -0.4 °F 31% 30.03 in 7.0 mi North 9.2 mph 21.9 mph N/A   Clear
5:13 PM 24.8 °F 17.9 °F 1.4 °F 36% 30.05 in 10.0 mi North 5.8 mph - N/A   Clear
5:33 PM 23.0 °F 12.4 °F 1.4 °F 39% 30.05 in 10.0 mi NNW 10.4 mph 19.6 mph N/A   Clear
5:53 PM 21.2 °F 9.5 °F 1.4 °F 42% 30.07 in 10.0 mi NNW 11.5 mph - N/A   Clear
6:13 PM 21.2 °F 13.6 °F -0.4 °F 39% 30.07 in 10.0 mi NNW 5.8 mph - N/A   Clear
6:33 PM 19.4 °F 9.5 °F 1.4 °F 46% 30.08 in 10.0 mi NW 8.1 mph - N/A   Clear
6:53 PM 19.4 °F 8.6 °F 1.4 °F 46% 30.09 in 10.0 mi NW 9.2 mph - N/A   Clear
7:13 PM 19.4 °F 7.9 °F 3.2 °F 49% 30.10 in 10.0 mi NW 10.4 mph - N/A   Clear
7:33 PM 19.4 °F 6.0 °F 3.2 °F 49% 30.10 in 10.0 mi NNW 13.8 mph - N/A   Clear
7:53 PM 17.6 °F 4.3 °F 3.2 °F 53% 30.11 in 10.0 mi NNW 12.7 mph - N/A   Clear
8:13 PM 17.6 °F 3.7 °F 1.4 °F 49% 30.12 in 10.0 mi NNW 13.8 mph - N/A   Clear
8:33 PM 17.6 °F 5.0 °F 1.4 °F 49% 30.12 in 10.0 mi NNW 11.5 mph 19.6 mph N/A   Clear
8:53 PM 17.6 °F 4.3 °F 1.4 °F 49% 30.13 in 10.0 mi NNW 12.7 mph 17.3 mph N/A   Clear
9:13 PM 15.8 °F 4.2 °F 1.4 °F 53% 30.13 in 10.0 mi NNW 9.2 mph - N/A   Clear
9:33 PM 14.0 °F 2.9 °F -0.4 °F 53% 30.14 in 10.0 mi NNW 8.1 mph - N/A   Clear
9:53 PM 14.0 °F 3.9 °F 1.4 °F 57% 30.14 in 10.0 mi NNW 6.9 mph - N/A   Clear
10:13 PM 14.0 °F 5.1 °F 1.4 °F 57% 30.14 in 10.0 mi NW 5.8 mph - N/A   Scattered Clouds
10:33 PM 14.0 °F 5.1 °F 1.4 °F 57% 30.14 in 10.0 mi NW 5.8 mph - N/A   Overcast
10:53 PM 15.8 °F 6.1 °F 1.4 °F 53% 30.14 in 10.0 mi NW 6.9 mph - N/A   Overcast
11:13 PM 15.8 °F 6.1 °F 1.4 °F 53% 30.14 in 10.0 mi NW 6.9 mph - N/A   Overcast
11:33 PM 15.8 °F 6.1 °F 1.4 °F 53% 30.14 in 10.0 mi NNW 6.9 mph - N/A   Overcast
11:53 PM 14.0 °F 5.1 °F -0.4 °F 53% 30.14 in 10.0 mi NW 5.8 mph - N/A   Overcast